Regional Weather Roundup
Issued by NWS

Home | Current Version | Previous Version | Text Only | Print | Product List | Glossary On
Versions: 1 2 3 4 5 6 7 8 9 10 11 12 13 14 15 16 17 18 19 20 21 22 23 24 25 26 27 28 29 30 31 32 33 34 35 36 37 38 39 40 41 42 43 44 45 46 47 48 49
000
ASUS45 KBOI 012210
RWRID

IDAHO REGIONAL WEATHER ROUNDUP
NATIONAL WEATHER SERVICE BOISE ID
400 PM MDT SAT AUG 01 2015

NOTE: "FAIR" INDICATES FEW OR NO CLOUDS BELOW 12000 FEET
WITH NO SIGNIFICANT WEATHER AND/OR OBSTRUCTIONS TO VISIBILITY

IDZ012-014-012300-
SOUTHWEST IDAHO


CITY           SKY/WX    TMP DP  RH WIND       PRES   REMARKS
BOISE          SUNNY    101  35  10 VRB7      29.94F HX  95
CALDWELL       SUNNY    100  43  14 N5        29.93F HX  96
MOUNTAIN HOME  SUNNY    101  27   7 NW3       29.95F HX  94
$$

IDZ016-017-012300-
SOUTHCENTRAL IDAHO


CITY           SKY/WX    TMP DP  RH WIND       PRES   REMARKS
BURLEY         SUNNY     95  28   9 VRB5      30.03F
JEROME         SUNNY     93  49  22 NW5       30.05F HX  90
TWIN FALLS     SUNNY     99  28   8 N6        30.03F HX  92
$$

IDZ019>023-012300-
SOUTHEAST IDAHO


CITY           SKY/WX    TMP DP  RH WIND       PRES   REMARKS
IDAHO FALLS    SUNNY     91  30  11 VRB5      30.10F
POCATELLO      SUNNY     96  25   8 N3        30.08F HX  90
REXBURG        SUNNY     90  27  10 S7        30.11F
$$

IDZ006-010-011-018-031-032-012300-
CENTRAL IDAHO MOUNTAINS


CITY           SKY/WX    TMP DP  RH WIND       PRES   REMARKS
MCCALL         SUNNY     92  31  11 SW13G24   30.11F
HAILEY         MOSUNNY   90  39  17 SW9       30.13F
STANLEY          N/A     86  27  11 NW9       30.24F
SALMON         SUNNY     91  43  18 CALM      29.98F
CHALLIS        MOSUNNY   90  32  12 SE6       30.09F
$$

IDZ002-004-006-007-026-012300-
NORTHERN IDAHO


CITY           SKY/WX    TMP DP  RH WIND       PRES   REMARKS
LEWISTON       SUNNY    104  32   8 NW8       29.85F HX  97
LOWELL           N/A    109  41  10 VRB3      29.83F HX 103
COEUR D`ALENE  SUNNY     95  34  11 SW8       29.90F HX  90
MULLAN PASS    SUNNY     81  31  16 VRB6      30.20F
$$



USA.gov is the U.S. government's official web portal to all federal, state and local government web resources and services.